User: anonymous   Login
Location: French Creek State Gamelands
(40.1750°N, 75.7969°W)
Time: 12:07:58
(UTC-04:00)
Language:

ISS - Orbit

View from above orbital plane
View from above orbital plane
View from above satellite
View from above satellite

Ground track
Ground track

The orbit data is extracted from the following two-line orbital elements,

1 25544U 98067A   14297.52747025  .00021910  00000-0  37957-3 0  2939
2 25544 051.6463 178.4477 0002435 299.8951 127.8142 15.50827535911391
Epoch (UTC): 24 October 2014 12:39:33
Eccentricity: 0.0002435
inclination: 51.6463°
perigee height: 412 km
apogee height: 416 km
right ascension of ascending node: 178.4477°
argument of perigee: 299.8951°
revolutions per day: 15.50827535
mean anomaly at epoch: 127.8142°
orbit number at epoch: 91139

The dashed part of the orbit path shows where the satellite is in the earth's shadow,  

DLR